Time,TemperatureF,DewpointF,PressureIn,WindDirection,WindDirectionDegrees,WindSpeedMPH,WindSpeedGustMPH,Humidity,HourlyPrecipIn,Conditions,Clouds,dailyrainin,SoftwareType,DateUTC
2013-09-01 00:11:00,80.0,74.0,29.74,NNW,347,1.0,4.0,82,0.00,,,0.00,weatherlink.com 1.10,2013-09-01 05:11:00,
2013-09-01 00:26:00,79.5,74.0,29.74,NNW,347,0.0,4.0,82,0.00,,,0.00,weatherlink.com 1.10,2013-09-01 05:26:00,
2013-09-01 00:41:00,78.9,73.0,29.74,NNW,347,1.0,4.0,83,0.00,,,0.00,weatherlink.com 1.10,2013-09-01 05:41:00,
2013-09-01 00:56:00,78.4,73.0,29.73,NNW,347,0.0,1.0,84,0.00,,,0.00,weatherlink.com 1.10,2013-09-01 05:56:00,
2013-09-01 01:11:00,77.7,73.0,29.73,NNW,347,0.0,1.0,85,0.00,,,0.00,weatherlink.com 1.10,2013-09-01 06:11:00,
2013-09-01 01:26:00,77.0,73.0,29.73,NNW,347,0.0,1.0,86,0.00,,,0.00,weatherlink.com 1.10,2013-09-01 06:26:00,
2013-09-01 01:41:00,76.4,73.0,29.73,NNW,347,0.0,2.0,88,0.00,,,0.00,weatherlink.com 1.10,2013-09-01 06:41:00,
2013-09-01 01:56:00,75.9,73.0,29.73,NNW,347,1.0,2.0,89,0.00,,,0.00,weatherlink.com 1.10,2013-09-01 06:56:00,
2013-09-01 02:27:00,75.4,72.0,29.73,NNW,347,0.0,1.0,89,0.00,,,0.00,weatherlink.com 1.10,2013-09-01 07:27:00,
2013-09-01 02:42:00,74.9,72.0,29.72,NNW,347,0.0,1.0,91,0.00,,,0.00,weatherlink.com 1.10,2013-09-01 07:42:00,
2013-09-01 02:57:00,74.4,72.0,29.72,NNW,347,0.0,0.0,91,0.00,,,0.00,weatherlink.com 1.10,2013-09-01 07:57:00,
2013-09-01 03:12:00,73.8,71.0,29.72,NNW,347,0.0,1.0,91,0.00,,,0.00,weatherlink.com 1.10,2013-09-01 08:12:00,
2013-09-01 03:27:00,73.7,71.0,29.72,NNW,347,0.0,0.0,92,0.00,,,0.00,weatherlink.com 1.10,2013-09-01 08:27:00,
2013-09-01 03:42:00,73.6,72.0,29.73,NNW,347,0.0,1.0,93,0.00,,,0.00,weatherlink.com 1.10,2013-09-01 08:42:00,
2013-09-01 03:57:00,73.6,72.0,29.73,NNW,347,0.0,0.0,93,0.00,,,0.00,weatherlink.com 1.10,2013-09-01 08:57:00,
2013-09-01 04:12:00,73.3,71.0,29.73,NNW,347,0.0,1.0,93,0.00,,,0.00,weatherlink.com 1.10,2013-09-01 09:12:00,
2013-09-01 04:27:00,72.7,71.0,29.73,NNW,347,0.0,0.0,93,0.00,,,0.00,weatherlink.com 1.10,2013-09-01 09:27:00,
2013-09-01 04:42:00,72.2,70.0,29.73,NNW,347,0.0,0.0,93,0.00,,,0.00,weatherlink.com 1.10,2013-09-01 09:42:00,
2013-09-01 04:57:00,71.6,70.0,29.73,NNW,347,0.0,1.0,93,0.00,,,0.00,weatherlink.com 1.10,2013-09-01 09:57:00,
2013-09-01 05:12:00,71.2,69.0,29.73,NNW,347,0.0,1.0,94,0.00,,,0.00,weatherlink.com 1.10,2013-09-01 10:12:00,
2013-09-01 05:27:00,71.0,70.0,29.73,NNW,347,0.0,2.0,95,0.00,,,0.00,weatherlink.com 1.10,2013-09-01 10:27:00,
2013-09-01 05:42:00,71.2,70.0,29.73,NNW,347,0.0,1.0,95,0.00,,,0.00,weatherlink.com 1.10,2013-09-01 10:42:00,
2013-09-01 05:57:00,71.1,70.0,29.72,NNW,347,0.0,0.0,95,0.00,,,0.00,weatherlink.com 1.10,2013-09-01 10:57:00,
2013-09-01 06:12:00,71.5,70.0,29.73,NNW,347,0.0,2.0,96,0.00,,,0.00,weatherlink.com 1.10,2013-09-01 11:12:00,
2013-09-01 06:27:00,71.1,70.0,29.74,NNW,347,0.0,1.0,96,0.00,,,0.00,weatherlink.com 1.10,2013-09-01 11:27:00,
2013-09-01 06:42:00,71.4,70.0,29.75,NNW,347,0.0,2.0,96,0.00,,,0.00,weatherlink.com 1.10,2013-09-01 11:42:00,
2013-09-01 06:57:00,71.2,70.0,29.75,NNW,347,0.0,0.0,96,0.00,,,0.00,weatherlink.com 1.10,2013-09-01 11:57:00,
2013-09-01 07:12:00,71.9,71.0,29.75,NNW,347,0.0,1.0,97,0.00,,,0.00,weatherlink.com 1.10,2013-09-01 12:12:00,
2013-09-01 07:27:00,72.7,72.0,29.76,NNW,347,0.0,0.0,96,0.00,,,0.00,weatherlink.com 1.10,2013-09-01 12:27:00,
2013-09-01 07:42:00,73.9,73.0,29.75,NNW,347,0.0,1.0,96,0.00,,,0.00,weatherlink.com 1.10,2013-09-01 12:42:00,
2013-09-01 07:57:00,75.8,74.0,29.75,NNW,347,2.0,2.0,93,0.00,,,0.00,weatherlink.com 1.10,2013-09-01 12:57:00,
2013-09-01 08:12:00,77.4,74.0,29.75,NNW,347,2.0,2.0,90,0.00,,,0.00,weatherlink.com 1.10,2013-09-01 13:12:00,
2013-09-01 08:27:00,78.6,75.0,29.77,NNW,346,1.0,6.0,87,0.00,,,0.00,weatherlink.com 1.10,2013-09-01 13:27:00,
2013-09-01 08:42:00,79.2,75.0,29.77,NW,325,0.0,5.0,86,0.00,,,0.00,weatherlink.com 1.10,2013-09-01 13:42:00,
2013-09-01 08:57:00,79.8,75.0,29.77,NNW,334,0.0,3.0,86,0.00,,,0.00,weatherlink.com 1.10,2013-09-01 13:57:00,
2013-09-01 09:12:00,80.3,75.0,29.76,WNW,300,0.0,6.0,84,0.00,,,0.00,weatherlink.com 1.10,2013-09-01 14:12:00,
2013-09-01 09:27:00,81.2,75.0,29.76,NW,317,2.0,8.0,82,0.00,,,0.00,weatherlink.com 1.10,2013-09-01 14:27:00,
2013-09-01 09:43:00,82.5,76.0,29.76,North,355,0.0,7.0,80,0.00,,,0.00,weatherlink.com 1.10,2013-09-01 14:43:00,
2013-09-01 09:58:00,82.7,75.0,29.76,West,273,0.0,5.0,77,0.00,,,0.00,weatherlink.com 1.10,2013-09-01 14:58:00,
2013-09-01 10:13:00,82.3,75.0,29.77,SW,236,1.0,4.0,78,0.00,,,0.00,weatherlink.com 1.10,2013-09-01 15:13:00,
2013-09-01 10:28:00,81.7,75.0,29.77,WSW,249,4.0,7.0,79,0.00,,,0.00,weatherlink.com 1.10,2013-09-01 15:28:00,
2013-09-01 10:43:00,80.5,74.0,29.78,West,271,4.0,9.0,81,0.00,,,0.00,weatherlink.com 1.10,2013-09-01 15:43:00,
2013-09-01 10:58:00,79.0,73.0,29.80,West,277,8.0,11.0,82,0.00,,,0.00,weatherlink.com 1.10,2013-09-01 15:58:00,
2013-09-01 11:13:00,77.3,73.0,29.80,West,268,3.0,10.0,85,0.00,,,0.00,weatherlink.com 1.10,2013-09-01 16:13:00,
2013-09-01 11:28:00,75.9,72.0,29.80,WNW,292,1.0,15.0,86,0.00,,,0.00,weatherlink.com 1.10,2013-09-01 16:28:00,
2013-09-01 11:43:00,75.5,70.0,29.81,NW,315,2.0,9.0,84,0.00,,,0.00,weatherlink.com 1.10,2013-09-01 16:43:00,
2013-09-01 11:58:00,75.7,70.0,29.80,South,188,3.0,7.0,83,0.00,,,0.00,weatherlink.com 1.10,2013-09-01 16:58:00,
2013-09-01 12:13:00,76.2,70.0,29.80,SW,234,0.0,5.0,81,0.00,,,0.00,weatherlink.com 1.10,2013-09-01 17:13:00,
2013-09-01 12:28:00,76.6,70.0,29.77,SE,134,2.0,4.0,80,0.00,,,0.00,weatherlink.com 1.10,2013-09-01 17:28:00,
2013-09-01 12:43:00,77.2,70.0,29.77,South,173,3.0,6.0,77,0.00,,,0.00,weatherlink.com 1.10,2013-09-01 17:43:00,
2013-09-01 12:58:00,78.6,70.0,29.76,ESE,117,4.0,7.0,76,0.00,,,0.00,weatherlink.com 1.10,2013-09-01 17:58:00,
2013-09-01 13:13:00,79.3,70.0,29.77,NE,44,1.0,6.0,73,0.00,,,0.00,weatherlink.com 1.10,2013-09-01 18:13:00,
2013-09-01 13:28:00,81.1,70.0,29.76,ESE,120,5.0,8.0,69,0.00,,,0.00,weatherlink.com 1.10,2013-09-01 18:28:00,
2013-09-01 13:43:00,82.7,70.0,29.77,SE,139,3.0,7.0,65,0.00,,,0.00,weatherlink.com 1.10,2013-09-01 18:43:00,
2013-09-01 13:58:00,84.7,69.0,29.77,NE,34,2.0,6.0,60,0.00,,,0.00,weatherlink.com 1.10,2013-09-01 18:58:00,
2013-09-01 14:13:00,86.2,69.0,29.77,ENE,78,1.0,6.0,57,0.00,,,0.00,weatherlink.com 1.10,2013-09-01 19:13:00,
2013-09-01 14:28:00,88.4,70.0,29.76,SSW,213,4.0,5.0,55,0.00,,,0.00,weatherlink.com 1.10,2013-09-01 19:28:00,
2013-09-01 14:43:00,89.0,69.0,29.76,ESE,107,3.0,7.0,51,0.00,,,0.00,weatherlink.com 1.10,2013-09-01 19:43:00,
2013-09-01 14:58:00,89.1,69.0,29.75,East,93,0.0,10.0,51,0.00,,,0.00,weatherlink.com 1.10,2013-09-01 19:58:00,
2013-09-01 15:13:00,89.7,69.0,29.75,WNW,303,1.0,9.0,51,0.00,,,0.00,weatherlink.com 1.10,2013-09-01 20:13:00,
2013-09-01 15:28:00,91.3,68.0,29.75,NNW,344,4.0,8.0,46,0.00,,,0.00,weatherlink.com 1.10,2013-09-01 20:28:00,
2013-09-01 15:43:00,91.7,69.0,29.74,NW,311,2.0,7.0,47,0.00,,,0.00,weatherlink.com 1.10,2013-09-01 20:43:00,
2013-09-01 15:58:00,92.1,68.0,29.74,North,5,2.0,7.0,45,0.00,,,0.00,weatherlink.com 1.10,2013-09-01 20:58:00,
2013-09-01 16:13:00,92.7,67.0,29.74,North,355,4.0,6.0,43,0.00,,,0.00,weatherlink.com 1.10,2013-09-01 21:13:00,
2013-09-01 16:28:00,92.5,67.0,29.75,NNW,347,5.0,8.0,43,0.00,,,0.00,weatherlink.com 1.10,2013-09-01 21:28:00,
2013-09-01 16:43:00,91.6,65.0,29.75,North,355,3.0,10.0,42,0.00,,,0.00,weatherlink.com 1.10,2013-09-01 21:43:00,
2013-09-01 16:58:00,90.7,65.0,29.75,WNW,299,0.0,4.0,42,0.00,,,0.00,weatherlink.com 1.10,2013-09-01 21:58:00,
2013-09-01 17:13:00,90.5,65.0,29.75,SW,234,3.0,6.0,43,0.00,,,0.00,weatherlink.com 1.10,2013-09-01 22:13:00,
2013-09-01 17:28:00,90.1,66.0,29.75,NNW,340,6.0,8.0,45,0.00,,,0.00,weatherlink.com 1.10,2013-09-01 22:28:00,
2013-09-01 17:43:00,89.6,66.0,29.75,North,350,3.0,7.0,46,0.00,,,0.00,weatherlink.com 1.10,2013-09-01 22:43:00,
2013-09-01 17:58:00,89.1,66.0,29.75,North,5,1.0,8.0,47,0.00,,,0.00,weatherlink.com 1.10,2013-09-01 22:58:00,
2013-09-01 18:13:00,88.6,67.0,29.75,WNW,284,1.0,8.0,49,0.00,,,0.00,weatherlink.com 1.10,2013-09-01 23:13:00,
2013-09-01 18:28:00,88.1,67.0,29.76,NNW,338,2.0,7.0,49,0.00,,,0.00,weatherlink.com 1.10,2013-09-01 23:28:00,
2013-09-01 18:43:00,87.3,66.0,29.76,North,355,3.0,5.0,50,0.00,,,0.00,weatherlink.com 1.10,2013-09-01 23:43:00,
2013-09-01 18:58:00,86.5,66.0,29.76,NNW,333,2.0,7.0,51,0.00,,,0.00,weatherlink.com 1.10,2013-09-01 23:58:00,
2013-09-01 19:13:00,85.6,66.0,29.76,North,349,0.0,7.0,53,0.00,,,0.00,weatherlink.com 1.10,2013-09-02 00:13:00,
2013-09-01 19:28:00,84.5,67.0,29.76,North,349,3.0,3.0,55,0.00,,,0.00,weatherlink.com 1.10,2013-09-02 00:28:00,
2013-09-01 19:43:00,83.3,66.0,29.77,North,349,0.0,2.0,57,0.00,,,0.00,weatherlink.com 1.10,2013-09-02 00:43:00,
2013-09-01 20:13:00,81.8,66.0,29.78,North,349,0.0,1.0,60,0.00,,,0.00,weatherlink.com 1.10,2013-09-02 01:13:00,
2013-09-01 20:28:00,81.4,67.0,29.78,NNW,344,0.0,2.0,62,0.00,,,0.00,weatherlink.com 1.10,2013-09-02 01:28:00,
2013-09-01 20:44:00,81.1,67.0,29.79,NNW,332,1.0,2.0,63,0.00,,,0.00,weatherlink.com 1.10,2013-09-02 01:44:00,
2013-09-01 20:59:00,80.5,67.0,29.80,NNW,327,0.0,3.0,63,0.00,,,0.00,weatherlink.com 1.10,2013-09-02 01:59:00,
2013-09-01 21:14:00,80.0,67.0,29.80,NW,311,3.0,4.0,64,0.00,,,0.00,weatherlink.com 1.10,2013-09-02 02:14:00,
2013-09-01 21:29:00,79.1,67.0,29.80,NW,306,0.0,2.0,66,0.00,,,0.00,weatherlink.com 1.10,2013-09-02 02:29:00,
2013-09-01 21:44:00,78.2,67.0,29.81,NW,307,0.0,2.0,68,0.00,,,0.00,weatherlink.com 1.10,2013-09-02 02:44:00,
2013-09-01 21:59:00,77.3,66.0,29.81,NW,307,1.0,1.0,69,0.00,,,0.00,weatherlink.com 1.10,2013-09-02 02:59:00,
2013-09-01 22:14:00,76.7,67.0,29.81,NW,311,0.0,3.0,71,0.00,,,0.00,weatherlink.com 1.10,2013-09-02 03:14:00,
2013-09-01 22:29:00,76.2,67.0,29.82,NW,311,0.0,1.0,72,0.00,,,0.00,weatherlink.com 1.10,2013-09-02 03:29:00,
2013-09-01 22:44:00,75.4,67.0,29.82,NW,311,0.0,2.0,74,0.00,,,0.00,weatherlink.com 1.10,2013-09-02 03:44:00,
2013-09-01 22:59:00,74.6,67.0,29.82,North,355,2.0,6.0,76,0.00,,,0.00,weatherlink.com 1.10,2013-09-02 03:59:00,
2013-09-01 23:14:00,75.1,66.0,29.83,North,360,4.0,10.0,74,0.00,,,0.00,weatherlink.com 1.10,2013-09-02 04:14:00,
2013-09-01 23:29:00,75.4,65.0,29.83,NNW,344,4.0,11.0,69,0.00,,,0.00,weatherlink.com 1.10,2013-09-02 04:29:00,
2013-09-01 23:44:00,75.3,63.0,29.83,NNW,331,3.0,9.0,66,0.00,,,0.00,weatherlink.com 1.10,2013-09-02 04:44:00,
2013-09-01 23:59:00,75.1,62.0,29.84,NE,34,5.0,8.0,64,0.00,,,0.00,weatherlink.com 1.10,2013-09-02 04:59:00,